Regional Weather Roundup
Issued by NWS

Home | Current Version | Previous Version | Graphics & Text | Print | Product List | Glossary Off
Versions: 1 2 3 4 5 6 7 8 9 10 11 12 13 14 15 16 17 18 19 20 21 22 23 24 25 26 27 28 29 30 31 32 33 34 35 36 37 38 39 40 41 42 43 44 45 46 47 48 49 50

000
ASUS43 KMKX 191821
RWRWI

WISCONSIN REGIONAL WEATHER ROUNDUP
NATIONAL WEATHER SERVICE MILWAUKEE/SULLIVAN WI
1200 PM CST MON FEB 19 2018

NOTE: "FAIR" INDICATES FEW OR NO CLOUDS BELOW 12,000 FEET WITH NO
SIGNIFICANT WEATHER AND/OR OBSTRUCTIONS TO VISIBILITY.

WIZ001-002-006>008-014>016-023>028-191900-
NORTHWEST WISCONSIN

CITY           SKY/WX    TMP DP  RH WIND       PRES   REMARKS
SUPERIOR ARPT  LGT SNOW  16  11  82 NE17G26   30.10S WCI   0
6HR MIN TEMP:  15; 6HR MAX TEMP:  17; 6HR PCP:  0.01;

ASHLAND        FOG       17  14  88 NE17G25   30.07F VSB 1/4 WCI   1
6HR MIN TEMP:  17; 6HR MAX TEMP:  19; 6HR PCP: TRACE;

HAYWARD        LGT SNOW  20  14  77 NE14G24   29.97F WCI   7
6HR MIN TEMP:  19; 6HR MAX TEMP:  20; 6HR PCP: TRACE;

SIREN          LGT SNOW  21  15  78 NE14G21   29.97S WCI   8
6HR MIN TEMP:  19; 6HR MAX TEMP:  21;

CUMBERLAND     MIX PCPN  21  16  79 NE17G28   29.91S WCI   7
RICE LAKE      MIX PCPN  22  18  86 N13       29.93S WCI  10
6HR MIN TEMP:  22; 6HR MAX TEMP:  23;

CHETEK         MIX PCPN  22  18  85 NE10G17   29.92S WCI  11
6HR MIN TEMP:  22; 6HR MAX TEMP:  26;

LADYSMITH      CLOUDY    22  18  85 NE14G21   29.94S WCI   9
6HR MIN TEMP:  22; 6HR MAX TEMP:  26;

EAU CLAIRE     LGT SNOW  24  21  88 NE15G22   29.86F VSB 3/4 WCI  11
6HR MIN TEMP:  24; 6HR MAX TEMP:  29; 6HR PCP:  0.01;

MENOMONIE      LGT SNOW  25  22  87 N13G18    29.87F WCI  13
6HR MIN TEMP:  25; 6HR MAX TEMP:  30;

NEW RICHMOND   LGT SNOW  23  18  81 NE17      29.90S WCI   9
6HR MIN TEMP:  22; 6HR MAX TEMP:  24;

OSCEOLA        LGT SNOW  22  18  83 NE16      29.96S WCI   8
6HR MIN TEMP:  22; 6HR MAX TEMP:  24;

$$

WIZ003>005-009-010-017-018-191900-
NORTH CENTRAL WISCONSIN

CITY           SKY/WX    TMP DP  RH WIND       PRES   REMARKS
MANITOWISH WTR LGT SNOW  17  14  89 NE9G16    29.96R WCI   5
6HR MIN TEMP:  16; 6HR MAX TEMP:  17;

ARBOR VITAE    CLOUDY    22  18  85 NE10      29.95R WCI  11
6HR MIN TEMP:  20; 6HR MAX TEMP:  22;

WOODRUFF       CLOUDY    22  18  85 NE10      29.95R WCI  11
6HR MIN TEMP:  20; 6HR MAX TEMP:  22;

RHINELANDER    FRZ RAIN  22  18  85 NE10G18   29.92S FOG     WCI  11
6HR MIN TEMP:  22; 6HR MAX TEMP:  28; 6HR PCP: TRACE;

EAGLE RIVER    CLOUDY    19  16  86 NE9       29.95R FOG     WCI   9
6HR MIN TEMP:  19; 6HR MAX TEMP:  22;

LAND O LAKES   LGT SNOW  19  15  84 NE10G17   29.98R WCI   7
6HR MIN TEMP:  19; 6HR MAX TEMP:  20;

PHILLIPS       CLOUDY    19  16  90 NE18G24   29.93S WCI   3
6HR MIN TEMP:  19; 6HR MAX TEMP:  22;

TOMAHAWK       MIX PCPN  22  18  83 NE6G16    29.92S WCI  15
6HR MIN TEMP:  22; 6HR MAX TEMP:  29;

MEDFORD        MIX PCPN  23  21  89 NE16G23   29.86F WCI  10
6HR MIN TEMP:  23; 6HR MAX TEMP:  29;

MERRILL        CLOUDY    26  22  87 NE13G21   29.91R FOG     WCI  14
6HR MIN TEMP:  22; 6HR MAX TEMP:  30;

$$

WIZ029-030-035-036-043>047-191900-
CENTRAL WISCONSIN

CITY           SKY/WX    TMP DP  RH WIND       PRES   REMARKS
WAUSAU         LGT SNOW  29  25  85 NE9       29.85F FOG     WCI  20
6HR MIN TEMP:  18; 6HR MAX TEMP:  31; 6HR PCP: TRACE;

MOSINEE        LGT SNOW  30  28  93 NE10      29.87F WCI  21
MARSHFIELD     LGT SNOW  31  27  85 NE13      29.84R FOG     WCI  21
6HR MIN TEMP:  26; 6HR MAX TEMP:  31; 6HR PCP: TRACE;

STEVENS POINT  MIX PCPN  31  28  88 NE12      29.86F WCI  21
6HR MIN TEMP:  20; 6HR MAX TEMP:  31;

WAUPACA        CLOUDY    38  31  76 NE8       29.86F WCI  32
6HR MIN TEMP:  28; 6HR MAX TEMP:  38;

WAUTOMA        CLOUDY    37  31  78 E13       29.85F WCI  29
6HR MIN TEMP:  27; 6HR MAX TEMP:  37;

WISC RAPIDS    CLOUDY    33  28  81 NE10      29.85S HAZE    WCI  25
6HR MIN TEMP:  27; 6HR MAX TEMP:  34; 6HR PCP: TRACE;

CAMP DOUGLAS   CLOUDY    40  33  74 E7        29.80F
6HR MIN TEMP:  34; 6HR MAX TEMP:  40;

$$

WIZ011>013-019>022-031-037>040-048>050-191900-
NORTHEAST WISCONSIN

CITY           SKY/WX    TMP DP  RH WIND       PRES   REMARKS
ANTIGO         CLOUDY    26  22  87 NE17      29.90R WCI  13
6HR MIN TEMP:  17; 6HR MAX TEMP:  28;

SHAWANO        CLOUDY    33  29  82 NE16      29.91F WCI  23
6HR MIN TEMP:  22; 6HR MAX TEMP:  34;

OCONTO         CLOUDY    32  28  84 NE14      29.94R WCI  22
6HR MIN TEMP:  29; 6HR MAX TEMP:  36;

STURGEON BAY   CLOUDY    31  27  85 NE16      29.94S WCI  20
6HR MIN TEMP:  31; 6HR MAX TEMP:  38;

GREEN BAY      CLOUDY    32  27  81 NE25G32   29.91F WCI  19
6HR MIN TEMP:  29; 6HR MAX TEMP:  38;

MANITOWOC      CLOUDY    38  31  76 NE9       29.91S WCI  31
6HR MIN TEMP:  33; 6HR MAX TEMP:  40;

APPLETON       CLOUDY    36  28  75 E20       29.86F HAZE    WCI  25
CLINTONVILLE   DRIZZLE   33  29  84 NE15      29.89S WCI  23
6HR MIN TEMP:  21; 6HR MAX TEMP:  34;

OSHKOSH        CLOUDY    37  32  82 NE12      29.86F WCI  29
6HR MIN TEMP:  32; 6HR MAX TEMP:  39;

$$

WIZ032>034-041-042-053>061-191900-
SOUTHWEST WISCONSIN

CITY           SKY/WX    TMP DP  RH WIND       PRES   REMARKS
LA CROSSE      CLOUDY    36  30  79 N10       29.79F WCI  28
6HR MIN TEMP:  33; 6HR MAX TEMP:  37; 6HR PCP: TRACE;

SPARTA         CLOUDY    37  32  83 NE10      29.81F WCI  29
6HR MIN TEMP:  29; 6HR MAX TEMP:  38;

VIROQUA        CLOUDY    39  34  84 E14       29.74F WCI  30
6HR MIN TEMP:  35; 6HR MAX TEMP:  39;

BOSCOBEL       LGT RAIN  39  37  92 NE5       29.76F VSB 1
6HR MIN TEMP:  31; 6HR MAX TEMP:  39; 6HR PCP:  0.01;

PRAIRIE DU CHI DRIZZLE   37  36  95 CALM      29.72F
6HR MIN TEMP:  35; 6HR MAX TEMP:  38; 6HR PCP:  0.06;

PLATTEVILLE    CLOUDY    37  37 100 E13       29.72F WCI  29
6HR MIN TEMP:  34; 6HR MAX TEMP:  37; 6HR PCP:  0.01;

$$

WIZ056-057-062-063-064-067-068-191900-
SOUTH CENTRAL WISCONSIN

CITY           SKY/WX    TMP DP  RH WIND       PRES   REMARKS
REEDSBURG      CLOUDY    38  33  83 NE7       29.77F WCI  32
6HR MIN TEMP:  34; 6HR MAX TEMP:  38;

BARABOO/DELLS  CLOUDY    37  33  85 NE8       29.77F WCI  31
6HR MIN TEMP:  34; 6HR MAX TEMP:  37;

LONE ROCK      FOG       37  37 100 E6        29.77S VSB 3/4 WCI  32
6HR MIN TEMP:  33; 6HR MAX TEMP:  39;

MINERAL POINT  MIX PCPN  39  39 100 E12       29.71F WCI  32
MADISON        LGT RAIN  37  36  96 NE7       29.78F FOG     WCI  32
6HR MIN TEMP:  33; 6HR MAX TEMP:  39; 6HR PCP:  0.02;

MIDDLETON      CLOUDY    38  37  97 E6        29.77F WCI  34
6HR MIN TEMP:  33; 6HR MAX TEMP:  39;

WATERTOWN      CLOUDY    39  39 100 NE8       29.78F FOG     WCI  34
6HR MIN TEMP:  33; 6HR MAX TEMP:  39;

MONROE         FOG       37  36  93 NE7       29.74F VSB<1/4 WCI  32
JANESVILLE     FOG       39  39 100 NE7       29.76F VSB 3/4 WCI  34
$$

WIZ051-052-058>065-066-070>072-191900-
SOUTHEAST WISCONSIN

CITY           SKY/WX    TMP DP  RH WIND       PRES   REMARKS
MILWAUKEE      CLOUDY    40  38  93 NE7       29.81S FOG
6HR MIN TEMP:  37; 6HR MAX TEMP:  43; 6HR PCP:  0.04;

WAUKESHA       CLOUDY    39  37  93 NE5       29.82F FOG
MILWAUKEE/TIMM LGT RAIN  39  36  87 NE7       29.82F WCI  34
RACINE         FOG       38  38 100 E6        29.82S VSB 1/2 WCI  33
6HR MIN TEMP:  36; 6HR MAX TEMP:  41; 6HR PCP:  0.08;

BURLINGTON     FOG       40  39  96 NE5       29.79F VSB 1
6HR MIN TEMP:  35; 6HR MAX TEMP:  41;

KENOSHA        LGT RAIN  42  40  92 E8        29.80F VSB 1/2
6HR MIN TEMP:  38; 6HR MAX TEMP:  43; 6HR PCP:  0.02;

FOND DU LAC    CLOUDY    42  32  67 NE8       29.85F
6HR MIN TEMP:  34; 6HR MAX TEMP:  42;

SHEBOYGAN      CLOUDY    40  35  83 NE7       29.87F
6HR MIN TEMP:  31; 6HR MAX TEMP:  41; 6HR PCP: TRACE;

WEST BEND      DRIZZLE   39  36  87 NE7       29.83F WCI  34
JUNEAU         DRIZZLE   38  37  95 NE8       29.81F WCI  32
6HR MIN TEMP:  32; 6HR MAX TEMP:  39;

$$

LSZ147-162-191900-
LAKE SUPERIOR

STATION/POSITION TIME  TEMP    WIND        PRES    WAVE
                       AIR SEA DIR/SP/G            HT/PER
                 (UTC) (F)     (DEG/KT/KT) (MB)    (FT/S)
DEVILS ISLAND    1800   16      40/ 28/ 30 1021.1R
SAXON HARBOR     1800   18      60/ 16/ 24 1017.9
$$

LMZ867-665-643>646-191900-
LAKE MICHIGAN

STATION/POSITION TIME  TEMP    WIND        PRES    W


USA.gov is the U.S. government's official web portal to all federal, state and local government web resources and services.